Content
SEND FEEDBACK

Daily
Averages
Monthly
Summary
United States of America

ANN ARBOR, MICHIGAN


Home > North America > United States > Michigan
Elevation: 759 feet     Latitude: 42 17N     Longitude: 083 43W

WEATHER
 
SELECT A DAY
Number of Records: 209,163;   Date Range: 1/1/95 - 12/26/14
 
SHARE

PRINT THIS DATA

[ ← Previous Day ]
WEATHER ALMANAC - JUNE 12, 2013
[ Next Day → ]
[ °C ]   °F
Weather ElementAverageHighLow
Temperature69.5 °F78.1 °F (4:53 pm)59 °F (4:07 am)
Dewpoint63.9 °F69.1 °F (5:53 pm)57.2 °F (4:07 am)
Humidity82.7 %94 % (4:07 am)66 % (4:53 pm)
Barometer29.80 in29.91 in (9:53 am)29.65 in (10:53 pm)
Wind Speed3.9 mph10.4 mph (10:53 pm)
Weather ElementAverage
Visibility6.9 mi
Wind DirectionENE (74.5 °)

Weather ElementTotal
Precipitation0.06 in
Cooling Degree Days3.6 (Base 65)
Growing Degree Days18.6 (Base 50)
Averaged from 31 records on June 12, 2013
WEATHER CONDITIONS BREAKOUT
WIND DIRECTION BREAKOUT
WEATHER BY HOUR - JUNE 12, 2013
[ °C ]   °F
Local TimeTemperatureDewpointHumidityBarometerVisibilityWind DirectionWind SpeedGust SpeedPrecipitationEventsConditions
1:53 AM62.1 °F59.0 °F90 %29.86 in10.0 miWSW (240°)4.6 mphClear
2:53 AM63.0 °F59.0 °F87 %29.85 in10.0 miCalmClear
3:53 AM60.1 °F57.9 °F93 %29.85 in8.0 miCalmClear
4:07 AM59.0 °F57.2 °F94 %29.86 in1.8 miCalmClear
4:20 AM59.0 °F57.2 °F94 %29.87 in4.0 miCalmClear
4:53 AM63.0 °F59.0 °F87 %29.88 in10.0 miNW (310°)4.6 mphClear
5:53 AM63.0 °F59.0 °F87 %29.88 in9.0 miCalmClear
6:53 AM66.0 °F61.0 °F84 %29.88 in9.0 miCalmClear
7:53 AM70.0 °F62.1 °F76 %29.88 in10.0 miCalmClear
8:53 AM73.0 °F62.1 °F68 %29.88 in10.0 miNNE (20°)5.8 mphClear
9:53 AM70.0 °F64.0 °F81 %29.91 in10.0 miVariable6.9 mphMostly Cloudy
10:53 AM72.0 °F64.0 °F76 %29.90 in10.0 miCalmPartly Cloudy
11:53 AM72.0 °F64.9 °F78 %29.91 in9.0 miCalm0.00 inRainLight Rain
12:53 PM73.9 °F66.0 °F76 %29.86 in10.0 miSSE (160°)6.9 mph0.01 inClear
1:53 PM73.9 °F64.0 °F71 %29.85 in10.0 miSW (220°)8.1 mphMostly Cloudy
2:53 PM75.9 °F66.0 °F71 %29.84 in10.0 miSSW (200°)8.1 mphClear
3:53 PM75.9 °F66.9 °F74 %29.80 in9.0 miSE (130°)5.8 mphClear
4:53 PM78.1 °F66.0 °F66 %29.81 in10.0 miCalmScattered Clouds
5:53 PM75.9 °F69.1 °F79 %29.81 in9.0 miCalm0.00 inRainLight Rain
6:53 PM75.0 °F69.1 °F82 %29.78 in6.0 miEast (100°)5.8 mph0.00 inRainLight Rain
7:53 PM73.0 °F68.0 °F84 %29.75 in5.0 miESE (120°)4.6 mph0.02 inHaze
8:11 PM71.6 °F68.0 °F88 %29.76 in4.0 miEast (90°)5.8 mphThunderstormOvercast
8:41 PM71.6 °F66.2 °F83 %29.74 in4.0 miEast (90°)6.9 mphHaze
8:53 PM71.1 °F66.9 °F87 %29.73 in4.0 miEast (90°)4.6 mphOvercast
9:53 PM70.0 °F66.0 °F87 %29.71 in4.0 miNE (50°)4.6 mphMostly Cloudy
10:30 PM69.8 °F66.2 °F88 %29.70 in2.5 miEast (90°)5.8 mphMostly Cloudy
10:39 PM69.8 °F66.2 °F88 %29.68 in3.0 miEast (90°)6.9 mphThunderstormMostly Cloudy
10:53 PM69.1 °F66.0 °F90 %29.65 in3.0 miEast (100°)10.4 mphMostly Cloudy
11:26 PM69.8 °F64.4 °F83 %29.68 in4.0 miENE (70°)5.8 mphThunderstormOvercast
11:41 PM69.8 °F64.4 °F83 %29.68 in3.0 miNE (40°)4.6 mph0.00 inRainLight Rain
11:53 PM68.0 °F64.9 °F90 %29.66 in2.5 miEast (100°)5.8 mph0.03 inRainRain
Hourly data recorded from KARB, located miles away from Ann Arbor, Michigan







STORIES FROM OUR PARTNERS